www.pogodaiklimat.ru

Погода и климат >> Архив погоды >> Россия >> Магаданская область >> Колымская


ПОГОДА в Колымской

  • Прогноз погоды в Колымской
  • Монитор погоды в Колымской

АРХИВ ПОГОДЫ в Колымской

Время (UTC), дата Ветер
(напр.,м/с)
 
Видим.   Явления Облачность Т
(С)
Тd
(С)
f
(%)
Тe
(С)
Тes
(С)
Комфортность P
(гПа)
Po
(гПа)
Тmin
(С)
Tmax
(С)
R
(мм)
R24
(мм)
S
(см)
09 13.04 Ю 2 50 км 9/3 1000 м
[Sc Ac trans Ci fib]
-4.3 -12.2 54 -8 -8 1012.9 911.4 -1.7
12 13.04 СВ 1 н/о н/о -9.0 -12.6 75 -11 -11 1015.6 912.1
15 13.04 штиль 0 50 км 4/3 1000 м
[Sc Ci fib]
-11.5 -13.7 84 -12 -12 1017.0 912.5
18 13.04 штиль 0 н/о н/о -13.2 -14.8 88 -13 -13 1017.9 912.6
21 13.04 В 1 50 км 10/0
[Ci fib]
-10.2 -14.8 69 -12 -11 1016.5 912.5 -13.8 44
00 14.04 ЮВ 3 н/о н/о -2.4 -13.8 41 -7 -7 1013.0 912.2
03 14.04 Ю 3 50 км 10/0
[Ci fib]
-0.6 -15.7 31 -4 +1 1011.4 911.3
06 14.04 Ю 3 н/о н/о -0.4 -14.9 32 -4 -4 1010.7 910.8
09 14.04 С 1 50 км 10/0
[Ci fib]
-4.9 -14.8 46 -7 -6 1012.5 910.8 +0.5
12 14.04 С 2 н/о н/о -10.6 -15.7 66 -15 -15 1014.8 910.8
15 14.04 С 1 50 км 8/0
[Ci fib]
-11.9 -16.5 69 -14 -14 1014.9 910.4
18 14.04 штиль 0 н/о н/о -16.1 -19.3 76 -16 -16 1015.6 909.4
21 14.04 Ю 3 20 км слаб. ливневой снег 10/10 1000 м
[Cb cap]
-9.2 -14.2 67 -15 -15 1013.2 909.9 -16.2 0.0 44
00 15.04 ЮВ 3 н/о н/о -7.2 -13.7 60 -13 -13 1012.5 910.0
03 15.04 ЮВ 3 50 км в посл. час ливневой снег 10/8 1000 м
[Cb cap Ac trans]
-4.9 -12.6 55 -10 -9 1011.2 909.6
06 15.04 Ю 3
{10}
н/о н/о -4.2 -13.0 50 -9 -9 1010.7 909.4
09 15.04 Ю 1 50 км 8/5 1000 м
[Cb cap Ac trans Ci fib]
-5.8 -13.0 57 -8 -8 1011.9 910.0 -3.8 0.2
12 15.04 Ю 3 н/о н/о -7.3 -12.1 68 -13 -13 1013.7 911.1
15 15.04 штиль 0 50 км {ливн. осадки} 6/4 1000 м
[Cb cap Ac trans Ci fib]
-12.3 -14.7 82 -12 -12 1016.3 911.5
18 15.04 СВ 1 н/о н/о -16.1 -17.8 87 -19 -19 1018.6 912.2
21 15.04 Ю 1 50 км 10/0
[Ci fib]
-8.0 -14.4 60 -10 -8 1015.7 912.6 -16.1 0.0 43
00 16.04 ЮВ 2 н/о н/о -6.4 -13.4 58 -10 -10 1016.0 913.4
03 16.04 Ю 2 50 км 8/8 1000 м
[Cu hum]
-4.0 -14.2 45 -7 -6 1015.0 913.4
06 16.04 ЮВ 4 н/о н/о -3.9 -12.8 50 -10 -10 1014.7 913.1
09 16.04 Ю 2 50 км 10/0
[Ac trans Ci fib]
-6.1 -13.5 56 -10 -10 1016.2 913.7 -2.8
12 16.04 ЮВ 1 н/о н/о -7.0 -13.3 61 -9 -9 1017.0 914.1
15 16.04 СЗ 1 50 км 10/0
[Ci fib]
-8.8 -12.9 72 -11 -11 1017.6 914.0
18 16.04 СВ 1 н/о н/о -9.2 -12.4 78 -11 -11 1017.2 913.5
21 16.04 Ю 3 50 км 10/0
[As op]
-5.3 -11.2 63 -10 -10 1013.2 911.3 -9.6 42
00 17.04 ЮВ 3
{11}
н/о н/о -2.6 -8.8 62 -7 -7 1011.7 911.0
03 17.04 ЮВ 2 20 км слаб. снег 10/0
[As op]
-1.1 -6.7 66 -5 -3 1011.3 911.1
06 17.04 ЮВ 5 н/о н/о -0.5 -5.9 67 -6 -6 1009.7 909.9
09 17.04 ЮВ 2
{11}
20 км слаб. ливневой снег 10/10 1000 м
[Cb cap]
-1.6 -5.3 76 -5 -5 1009.5 909.3 +0.4 0.3
12 17.04 ЮВ 2
{10}
н/о н/о -2.5 -5.6 79 -6 -6 1009.4 908.9
15 17.04 ЮВ 2 10 км слаб. ливневой снег 10/10 1000 м
[Cb cap]
-3.4 -6.7 78 -7 -7 1008.5 907.8
18 17.04 Ю 2 н/о н/о -4.1 -6.6 83 -8 -8 1008.1 907.2
21 17.04 Ю 2 20 км слаб. ливневой снег 10/10 1000 м
[Cb cap]
-4.0 -8.7 70 -8 -8 1008.8 907.8 -4.8 0.9 42
00 18.04 Ю 2 н/о н/о -3.4 -8.5 68 -7 -7 1009.8 908.9
03 18.04 Ю 3 50 км {ливн. осадки} 10/10 1000 м
[Cb cap]
-1.3 -11.2 47 -5 -5 1010.0 909.9
06 18.04 Ю 3 н/о н/о -2.3 -8.8 61 -7 -7 1011.7 911.1
09 18.04 Ю 2 50 км 9/9 1000 м
[Cb cap]
-3.4 -9.9 61 -7 -7 1014.2 912.9 -1.2 0.4
12 18.04 СВ 1 н/о н/о -8.0 -11.3 77 -10 -10 1018.0 914.7
15 18.04 С 1 50 км 6/6 1000 м
[Cb cap]
-8.4 -11.1 81 -11 -11 1019.4 915.8
18 18.04 В 1 н/о н/о -9.8 -11.7 86 -12 -12 1020.5 916.2
21 18.04 С 1 20 км слаб. снег 10/0
[As op]
-5.5 -9.4 74 -8 -7 1019.5 916.9 -10.8 0.0 42
00 19.04 ЮВ 2 н/о н/о -3.1 -9.6 61 -7 -7 1018.9 917.2
03 19.04 ЮВ 1 4000 м слаб. ливневой снег 10/10 1000 м
[Cb cap]
-3.7 -6.5 81 -6 -6 1019.0 917.2
06 19.04 ЮВ 2 н/о н/о -3.7 -6.9 78 -8 -8 1018.9 917.1
09 19.04 Ю 1 50 км {ливн. осадки} 10/10 1000 м
[Sc]
-4.2 -8.0 75 -6 -6 1019.3 917.2 -2.1 2
12 19.04 Ю 1 н/о н/о -3.8 -7.3 77 -6 -6 1019.0 917.1
15 19.04 ЮВ 3 50 км 9/5 1000 м
[Sc Ac trans]
-3.5 -7.0 77 -9 -9 1018.5 916.8
18 19.04 ЮВ 2 н/о н/о -4.0 -7.3 78 -8 -8 1018.3 916.4
21 19.04 Ю 1 50 км 8/8 1000 м
[Cb cap]
-3.5 -7.0 77 -6 -5 1019.0 917.2 -4.6 48
00 20.04 Ю 2 н/о н/о -2.1 -7.3 68 -6 -6 1019.2 917.9
03 20.04 Ю 2 20 км слаб. ливневой снег 10/10 1000 м
[Cb cap]
-1.2 -7.1 64 -5 -5 1019.5 918.5

 

Местоположение метеостанции Колымская (Магаданская область, Россия): широта 61.85 долгота 147.60 высота над уровнем моря 839 м.

В архиве по умолчанию представлена погода в Колымской за последнюю неделю. Архивные данные за месяц целиком и за предыдущие месяцы, начиная с января 2011 года, Вы можете получить, выбрав интересующий диапазон дат из раскрывающегося списка и нажав кнопку "Ввод!".


*Определитесь, кто Вы:
робот инопланетянин человек

Внимание! Время в таблицах - всемирное. Для получения местного времени необходимо прибавить поправку, которая равна 11 ч.

Смотрите также архив погоды в соседних городах и на ближайших метеорологических станциях:

Погода на Озере Джека Лондона (Магаданская область, Россия) (103 км)
Погода в Сусумане (Магаданская область, Россия) (107 км)
Погода в Ягодной (Магаданская область, Россия) (127 км)
Погода в Усть-Омчуге (Магаданская область, Россия) (134 км)
Погода в Усть-Бохапче (Магаданская область, Россия) (159 км)
Погода в Совхозе Эльген (Магаданская область, Россия) (188 км)
Погода в Мадауне (Магаданская область, Россия) (216 км)
Погода в Талоне (Магаданская область, Россия) (239 км)
Погода в Делянкире (Якутия, Россия) (242 км)
Погода в Среднекане (Магаданская область, Россия) (253 км)

Пояснения к столбцам:

Ветер - указаны скорость ветра в м/с - средняя за 10 мин, порывы в срок и между сроками (в фигурных скобках) и направление, откуда дует ветер: С - северный, СВ - северо-восточный, В - восточный, ЮВ - юго-восточный, Ю - южный, ЮЗ - юго-западный, З - западный, СЗ - северо-западный.
Видимость - горизонтальная дальность видимости в метрах или километрах. При видимости от 1 до 10 км при отсутствии осадков обычно наблюдается дымка, при ухудшении видимости до 1 км и менее - туман. В сухую погоду видимость может ухудшаться дымом, пылью или мглою.
Явления - указаны атмосферные явления, наблюдавшиеся в срок или в последний час перед сроком; фигурными скобками обозначены явления, наблюдавшиеся между сроками (за 1-3 часа до срока); квадратными скобками обозначены град или гололедные отложения с указанием их диаметра в мм.
Облачность - указаны через наклонную черту общая и нижняя облачность в баллах и высота нижней границы облаков в метрах; квадратными скобками обозначены формы облаков: Ci - перистые, Cs - перисто-слоистые, Cc - перисто-кучевые, Ac - высококучевые, As - высокослоистые, Sc - слоисто-кучевые, Ns - слоисто-дождевые, Cu - кучевые, Cb - кучево-дождевые. Подробнее классификацию облаков см. в Атласе облаков (PDF).
T - Температура воздуха - температура, измеренная на высоте 2 м над землей.
Td - Температура точки росы - температура, при понижении до которой содержащийся в воздухе водяной пар достигнет насыщения.
f - Относительная влажность воздуха - влажноcть воздуха, измеренная на высоте 2 м над землей.
Te - Эффективная температура - температура, которую ощущает одетый по сезону человек в тени. Характеристика душности погоды. При расчете учитывается влияние влажности воздуха и скорости ветра на теплоощущения человека.
Tes - Эффективная температура на солнце - температура, которую ощущает человек, с поправкой на солнечный нагрев. Характеристика знойности погоды. Зависит от высоты солнца над горизонтом, облачности и скорости ветра. Ночью, в пасмурную погоду, а также при ветре 12 м/с и более поправка равна нулю.
P - Атмосферное давление - приведенное к уровню моря атмосферное давление.
Po - Атмосферное давление - измеренное на уровне метеостанции атмосферное давление.
Tmin - Минимальная температура - минимум температуры воздуха на высоте 2 м над землей.
Tmax - Максимальная температура - максимум температуры воздуха на высоте 2 м над землей.
R - Количество осадков - Количество выпавших осадков за период времени, мм. При наведении курсора мыши на число - период времени, за который выпало указанное количество осадков.
R24 - Количество осадков - Количество выпавших осадков за 24 часа, мм.
S - Снежный покров - Высота снежного покрова, см. При наведении курсора мыши на число - состояние снежного покрова и степень покрытия местности в баллах.